Location: Unspecified
(0.0000°N, 0.0000°E)
Time: 00:53:32
(UTC+00:00)

deb r/b Ablestar - Pass Details

Date: 18 December 2025
Orbit: 815 x 921 km, 66.9° (Epoch: 13 January)

Event Time Altitude Azimuth Distance (km) Brightness Sun altitude
Rises 19:28:54 0° 202° (SSW) 3,517 ? -21.0°
Reaches altitude 10° 19:31:23 10° 203° (SSW) 2,586 ? -21.6°
Maximum altitude 19:37:25 81° 290° (WNW) 930 ? -22.9°
Enters shadow 19:40:10 35° 12° (NNE) 1,448 ? -23.6°
